�N����,����,�~����,�C��,���x,�C��,����,���ϕ���,�ő�u�ԕ���,�ő厞����,���˗�,�I�_���x,�n�����x,�ő啗���N��,DTYPE
"22/01/06","00:10",0.0,2.4,89.7,1019.7,320.4,2.8,4.2,315.8,0.00,0.9,6.2,"00:02:32",1
"22/01/06","00:20",0.0,2.4,89.4,1019.7,310.6,2.2,3.7,327.6,0.00,0.9,6.4,"00:13:36",1
"22/01/06","00:30",0.0,2.3,89.3,1019.4,287.1,1.6,2.4,308.9,0.00,0.8,6.2,"00:29:36",1
"22/01/06","00:40",0.0,2.2,89.2,1019.4,302.6,2.0,3.3,318.5,0.00,0.6,6.2,"00:34:48",1
"22/01/06","00:50",0.0,2.1,89.2,1019.4,308.7,1.6,2.4,327.2,0.00,0.6,6.2,"00:47:36",1
"22/01/06","01:00",0.0,2.0,89.2,1019.7,322.6,1.7,2.5,315.9,0.00,0.5,6.3,"00:58:40",1
"22/01/06","01:10",0.0,2.0,89.3,1019.2,306.8,2.0,2.8,318.4,0.00,0.5,6.2,"01:09:36",1
"22/01/06","01:20",0.0,2.0,89.5,1019.0,327.6,2.5,3.6,333.4,0.00,0.5,6.3,"01:17:52",1
"22/01/06","01:30",0.0,2.1,89.6,1019.2,317.7,3.1,3.9,319.5,0.00,0.6,6.3,"01:28:02",1
"22/01/06","01:40",0.0,2.2,89.5,1019.0,318.2,3.0,4.0,319.9,0.00,0.7,6.2,"01:35:36",1
"22/01/06","01:50",0.0,2.3,89.4,1019.7,323.6,2.6,3.4,311.7,0.00,0.8,6.3,"01:40:16",1
"22/01/06","02:00",0.0,2.2,89.4,1019.4,324.6,3.1,4.5,330.9,0.00,0.7,6.3,"01:56:24",1
"22/01/06","02:10",0.0,2.3,89.3,1019.7,321.9,3.0,4.0,322.6,0.00,0.8,6.1,"02:07:28",1
"22/01/06","02:20",0.0,2.4,89.1,1019.7,324.8,3.4,4.9,328.7,0.00,0.8,6.1,"02:18:40",1
"22/01/06","02:30",0.0,2.5,88.9,1019.7,322.1,2.7,4.1,334.1,0.00,0.9,6.1,"02:24:08",1
"22/01/06","02:40",0.0,2.4,88.7,1019.9,321.5,2.7,3.9,327.2,0.00,0.8,6.2,"02:37:20",1
"22/01/06","02:50",0.0,2.4,88.5,1019.4,320.5,3.0,3.7,318.0,0.00,0.7,6.2,"02:43:04",1
"22/01/06","03:00",0.0,2.4,88.4,1019.9,317.0,2.7,4.1,318.1,0.00,0.7,6.2,"02:50:16",1
"22/01/06","03:10",0.0,2.4,88.3,1019.4,321.3,2.5,3.6,328.5,0.00,0.7,6.1,"03:06:06",1
"22/01/06","03:20",0.0,2.3,88.3,1018.7,306.2,2.7,4.8,309.6,0.00,0.6,6.1,"03:15:44",1
"22/01/06","03:30",0.0,2.3,88.2,1018.7,289.4,1.5,3.5,327.3,0.00,0.6,6.1,"03:20:16",1
"22/01/06","03:40",0.0,2.3,88.2,1018.5,275.7,1.6,2.4,265.0,0.00,0.6,5.9,"03:38:24",1
"22/01/06","03:50",0.0,2.3,88.1,1018.2,286.9,2.0,2.4,305.3,0.00,0.6,6.0,"03:49:04",1
"22/01/06","04:00",0.0,2.4,88.0,1018.5,285.3,2.0,2.4,299.5,0.00,0.7,6.1,"03:50:56",1
"22/01/06","04:10",0.0,2.4,87.8,1018.5,290.6,1.6,2.1,309.8,0.00,0.6,6.2,"04:00:24",1
"22/01/06","04:20",0.0,2.4,87.6,1018.5,300.9,1.8,2.5,318.8,0.00,0.6,6.1,"04:17:04",1
"22/01/06","04:30",0.0,2.4,87.5,1018.2,315.8,2.2,2.8,316.1,0.00,0.6,6.1,"04:20:16",1
"22/01/06","04:40",0.0,2.4,87.5,1018.2,299.2,2.1,2.9,317.4,0.00,0.6,6.3,"04:32:32",1
"22/01/06","04:50",0.0,2.3,87.6,1018.0,314.7,2.5,3.4,313.4,0.00,0.5,6.0,"04:40:32",1
"22/01/06","05:00",0.0,2.3,87.7,1018.0,306.8,1.1,2.2,330.7,0.00,0.5,6.1,"04:50:08",1
"22/01/06","05:10",0.0,2.3,87.8,1017.8,299.4,2.6,3.6,321.3,0.00,0.5,6.1,"05:05:20",1
"22/01/06","05:20",0.0,2.3,87.9,1017.8,288.9,1.8,2.2,318.3,0.00,0.5,6.0,"05:17:12",1
"22/01/06","05:30",0.0,2.3,88.1,1017.8,312.5,2.3,2.9,319.3,0.00,0.6,6.0,"05:26:16",1
"22/01/06","05:40",0.0,2.2,88.3,1017.5,318.9,1.8,2.8,325.0,0.00,0.5,5.8,"05:38:16",1
"22/01/06","05:50",0.0,2.2,88.5,1017.8,316.5,2.0,3.3,322.6,0.00,0.5,6.2,"05:41:52",1
"22/01/06","06:00",0.0,2.1,88.8,1017.8,299.9,1.7,2.4,308.9,0.00,0.5,6.0,"05:57:12",1
"22/01/06","06:10",0.0,2.1,89.0,1018.0,297.0,1.7,2.4,315.8,0.00,0.5,5.9,"06:00:32",1
"22/01/06","06:20",0.0,2.1,89.3,1018.5,291.9,2.0,2.8,319.7,0.00,0.6,5.7,"06:10:02",1
"22/01/06","06:30",0.0,2.1,89.5,1018.0,316.2,2.1,3.2,329.4,0.00,0.6,6.0,"06:26:40",1
"22/01/06","06:40",0.0,2.2,89.7,1018.5,319.7,1.8,2.7,320.6,0.00,0.7,6.0,"06:36:56",1
"22/01/06","06:50",0.0,2.1,89.9,1018.7,315.8,2.0,2.6,321.6,0.00,0.7,6.0,"06:44:32",1
"22/01/06","07:00",0.0,2.1,90.1,1018.2,299.6,1.2,1.8,300.7,0.00,0.7,6.0,"06:50:16",1
"22/01/06","07:10",0.0,2.0,90.2,1018.5,303.6,1.3,1.9,317.4,0.00,0.6,6.0,"07:02:48",1
"22/01/06","07:20",0.0,2.0,90.4,1019.0,299.9,2.0,3.1,312.8,0.00,0.6,6.1,"07:18:16",1
"22/01/06","07:30",0.0,2.2,90.5,1018.5,315.7,2.7,3.4,327.4,0.00,0.8,5.8,"07:26:40",1
"22/01/06","07:40",0.0,2.2,90.5,1019.0,310.8,2.0,3.6,325.2,0.00,0.8,5.9,"07:30:08",1
"22/01/06","07:50",0.0,2.2,90.6,1019.0,299.0,1.7,2.5,316.2,0.00,0.9,6.1,"07:43:28",1
"22/01/06","08:00",0.0,2.2,90.7,1019.0,297.0,1.6,2.1,308.5,0.00,0.9,6.2,"07:54:16",1
"22/01/06","08:10",0.0,2.2,90.7,1018.5,313.3,1.3,2.4,321.8,0.00,0.9,6.0,"08:09:04",1
"22/01/06","08:20",0.0,2.4,90.8,1018.5,317.3,1.8,2.7,313.8,0.00,1.1,5.8,"08:19:28",1
"22/01/06","08:30",0.0,2.4,90.9,1018.2,318.1,2.0,2.5,325.9,0.00,1.1,6.1,"08:20:08",1
"22/01/06","08:40",0.0,2.5,91.0,1018.2,307.7,1.7,2.7,321.4,0.00,1.2,6.2,"08:39:52",1
"22/01/06","08:50",0.0,2.6,91.0,1018.2,309.5,2.3,3.2,316.5,0.01,1.3,6.0,"08:48:08",1
"22/01/06","09:00",0.0,2.7,91.0,1018.0,291.0,1.7,2.7,312.2,0.01,1.4,5.9,"08:50:56",1
"22/01/06","09:10",0.0,2.8,91.0,1018.5,279.5,1.7,2.2,265.8,0.02,1.5,6.2,"09:04:32",1
"22/01/06","09:20",0.0,2.9,90.8,1019.0,272.2,1.7,2.7,246.1,0.03,1.6,6.2,"09:15:12",1
"22/01/06","09:30",0.0,3.0,90.6,1018.7,292.4,2.0,3.2,310.5,0.03,1.7,5.9,"09:25:44",1
"22/01/06","09:40",0.0,3.1,90.3,1019.0,288.9,1.7,2.4,315.3,0.05,1.7,6.0,"09:38:40",1
"22/01/06","09:50",0.0,3.4,89.8,1019.2,272.7,1.3,1.9,303.2,0.07,1.9,6.2,"09:40:48",1
"22/01/06","10:00",0.0,3.6,89.0,1018.7,281.2,1.1,2.1,279.7,0.08,2.0,6.0,"09:56:16",1
"22/01/06","10:10",0.0,3.8,88.5,1019.2,277.1,1.2,1.8,246.3,0.09,2.1,6.2,"10:00:08",1
"22/01/06","10:20",0.0,3.9,87.5,1018.7,248.9,0.8,1.7,266.5,0.08,2.1,6.0,"10:15:12",1
"22/01/06","10:30",0.0,4.0,86.8,1018.7,226.3,1.0,2.4,213.9,0.11,2.0,6.1,"10:29:20",1
"22/01/06","10:40",0.0,4.2,85.9,1019.4,200.9,1.1,2.1,122.3,0.13,2.1,6.1,"10:39:52",1
"22/01/06","10:50",0.0,4.2,84.9,1018.7,243.2,1.2,3.1,245.7,0.10,1.9,6.0,"10:43:12",1
"22/01/06","11:00",0.0,4.2,84.4,1019.2,219.7,1.1,1.9,236.1,0.09,1.8,6.2,"10:50:08",1
"22/01/06","11:10",0.0,4.3,83.8,1018.2,209.9,0.8,1.9,240.5,0.10,1.8,6.2,"11:02:56",1
"22/01/06","11:20",0.0,4.4,83.5,1018.2,218.1,0.8,2.0,235.5,0.11,1.9,6.3,"11:12:48",1
"22/01/06","11:30",0.0,4.5,82.9,1018.7,203.6,0.7,1.8,140.6,0.14,1.9,6.2,"11:22:08",1
"22/01/06","11:40",0.0,4.6,82.6,1018.2,177.8,0.7,1.7,179.6,0.12,1.9,6.3,"11:30:30",1
"22/01/06","11:50",0.0,4.6,82.2,1017.8,307.0,0.8,1.7,302.1,0.10,1.9,6.3,"11:46:44",1
"22/01/06","12:00",0.0,4.8,81.7,1017.5,312.5,1.6,2.4,325.8,0.11,2.0,6.5,"11:51:12",1
"22/01/06","12:10",0.0,5.0,81.3,1017.5,247.6,0.8,1.7,284.0,0.13,2.1,6.3,"12:00:42",1
"22/01/06","12:20",0.0,5.0,80.8,1017.8,236.3,0.6,1.2,183.1,0.12,2.0,6.3,"12:14:14",1
"22/01/06","12:30",0.0,5.0,80.5,1017.3,198.0,0.8,2.1,209.5,0.13,2.0,6.3,"12:26:26",1
"22/01/06","12:40",0.0,4.8,80.6,1017.5,179.7,1.2,3.3,190.3,0.12,1.8,6.4,"12:37:44",1
"22/01/06","12:50",0.0,4.7,81.1,1017.1,138.2,1.5,3.2,121.2,0.11,1.8,6.5,"12:47:12",1
"22/01/06","13:00",0.0,5.0,82.0,1017.1,148.2,1.2,2.6,134.9,0.15,2.2,6.4,"12:53:18",1
"22/01/06","13:10",0.0,5.1,81.7,1016.8,173.6,1.1,3.1,116.3,0.13,2.3,6.6,"13:02:08",1
"22/01/06","13:20",0.0,5.6,81.9,1016.1,163.8,1.2,2.6,211.5,0.26,2.8,6.5,"13:19:20",1
"22/01/06","13:30",0.0,5.7,80.4,1016.6,154.4,1.5,2.8,126.1,0.24,2.6,6.6,"13:29:48",1
"22/01/06","13:40",0.0,5.7,79.9,1016.6,158.5,1.0,2.1,211.4,0.18,2.5,6.7,"13:38:50",1
"22/01/06","13:50",0.0,5.7,79.4,1016.4,194.8,0.8,1.8,151.6,0.17,2.5,6.6,"13:42:16",1
"22/01/06","14:00",0.0,5.7,79.4,1016.6,211.6,1.0,2.7,151.1,0.17,2.5,6.7,"13:52:40",1
"22/01/06","14:10",0.0,6.5,78.5,1016.4,164.8,1.0,3.2,147.7,0.33,3.1,6.6,"14:02:08",1
"22/01/06","14:20",0.0,6.9,76.3,1016.4,258.2,1.3,3.1,110.4,0.26,3.1,6.8,"14:10:40",1
"22/01/06","14:30",0.0,7.0,76.0,1016.1,220.5,1.0,1.8,183.8,0.21,3.1,6.9,"14:21:44",1
"22/01/06","14:40",0.0,6.9,74.6,1016.1,192.2,1.6,2.8,173.2,0.22,2.7,7.0,"14:32:08",1
"22/01/06","14:50",0.0,7.0,74.1,1016.1,115.0,1.3,3.2,108.3,0.24,2.7,7.0,"14:42:32",1
"22/01/06","15:00",0.0,7.1,73.0,1015.9,142.2,1.2,2.8,114.9,0.23,2.6,7.0,"14:53:38",1
"22/01/06","15:10",0.0,7.2,72.3,1016.1,354.7,1.2,2.7,3.5,0.21,2.6,7.1,"15:08:56",1
"22/01/06","15:20",0.0,7.6,71.2,1015.6,210.2,1.0,2.2,97.1,0.18,2.8,7.0,"15:17:28",1
"22/01/06","15:30",0.0,7.6,70.7,1015.9,203.3,1.3,2.9,88.1,0.16,2.7,7.3,"15:27:52",1
"22/01/06","15:40",0.0,7.6,71.1,1015.6,223.5,1.5,2.9,212.9,0.13,2.7,7.1,"15:34:32",1
"22/01/06","15:50",0.0,7.5,70.8,1015.6,204.8,1.3,3.1,145.5,0.11,2.6,7.2,"15:49:28",1
"22/01/06","16:00",0.0,7.3,71.0,1015.9,204.1,1.5,3.2,205.4,0.09,2.4,7.2,"15:52:32",1
"22/01/06","16:10",0.0,7.3,71.0,1015.6,215.2,1.3,3.3,198.3,0.07,2.4,6.9,"16:05:36",1
"22/01/06","16:20",0.0,7.2,71.0,1015.9,182.9,1.1,2.1,224.1,0.05,2.3,7.4,"16:10:34",1
"22/01/06","16:30",0.0,7.1,71.2,1015.6,192.2,1.1,2.6,234.4,0.03,2.3,7.2,"16:29:50",1
"22/01/06","16:40",0.0,6.8,71.2,1015.6,242.7,1.5,2.6,244.2,0.01,2.0,7.2,"16:33:06",1
"22/01/06","16:50",0.0,6.1,72.3,1015.6,260.2,1.6,2.2,247.0,0.00,1.5,7.2,"16:43:12",1
"22/01/06","17:00",0.0,5.6,73.6,1015.9,271.7,1.7,2.5,265.5,0.00,1.3,7.5,"16:57:04",1
"22/01/06","17:10",0.0,5.2,75.4,1015.6,283.2,1.7,2.8,311.2,0.00,1.3,7.4,"17:09:04",1
"22/01/06","17:20",0.0,4.7,77.2,1015.2,299.0,2.1,2.6,312.9,0.00,1.1,7.6,"17:12:40",1
"22/01/06","17:30",0.0,4.2,79.0,1015.4,308.4,2.2,2.8,311.7,0.00,0.9,7.4,"17:25:36",1
"22/01/06","17:40",0.0,3.6,80.3,1015.4,301.6,1.6,2.2,310.4,0.00,0.6,7.3,"17:30:24",1
"22/01/06","17:50",0.0,3.3,81.5,1015.4,288.8,1.7,2.1,285.9,0.00,0.5,7.3,"17:47:12",1
"22/01/06","18:00",0.0,3.0,82.8,1014.9,299.7,2.1,2.7,305.7,0.00,0.4,7.3,"17:51:20",1
"22/01/06","18:10",0.0,2.9,84.1,1015.4,306.9,2.5,3.3,312.2,0.00,0.5,7.3,"18:08:24",1
"22/01/06","18:20",0.0,2.7,85.3,1015.2,292.7,2.0,2.2,318.5,0.00,0.5,7.3,"18:10:48",1
"22/01/06","18:30",0.0,2.6,86.3,1015.2,291.7,2.1,3.1,308.0,0.00,0.6,7.2,"18:22:00",1
"22/01/06","18:40",0.0,2.5,87.1,1015.2,307.4,2.5,3.5,327.5,0.00,0.6,7.3,"18:37:20",1
"22/01/06","18:50",0.0,2.1,87.7,1015.2,320.5,2.0,2.7,318.8,0.00,0.3,7.1,"18:46:24",1
"22/01/06","19:00",0.0,1.7,88.3,1015.2,303.5,1.6,2.4,323.2,0.00,0.0,7.1,"18:50:16",1
"22/01/06","19:10",0.0,1.4,88.9,1015.2,306.5,1.5,2.1,321.5,0.00,-0.2,7.1,"19:01:44",1
"22/01/06","19:20",0.0,1.3,89.4,1015.4,304.5,1.8,2.5,322.7,0.00,-0.2,7.0,"19:12:40",1
"22/01/06","19:30",0.0,1.2,89.7,1015.2,310.2,1.6,1.9,319.4,0.00,-0.3,7.1,"19:20:40",1
"22/01/06","19:40",0.0,1.0,90.2,1015.2,314.4,1.6,2.0,319.9,0.00,-0.4,7.0,"19:33:36",1
"22/01/06","19:50",0.0,0.7,90.8,1015.4,329.3,1.6,2.4,325.0,0.00,-0.6,7.0,"19:43:20",1
"22/01/06","20:00",0.0,0.7,91.1,1015.2,309.2,1.5,2.1,335.9,0.00,-0.5,7.0,"19:52:56",1
"22/01/06","20:10",0.0,0.9,91.6,1015.2,293.9,1.8,3.1,321.2,0.00,-0.3,6.9,"20:06:24",1
"22/01/06","20:20",0.0,1.0,91.8,1015.2,304.6,1.8,2.4,311.8,0.00,-0.1,6.9,"20:12:24",1
"22/01/06","20:30",0.0,0.9,92.2,1015.2,318.5,1.7,2.5,325.6,0.00,-0.2,6.7,"20:27:28",1
"22/01/06","20:40",0.0,0.7,92.7,1015.2,308.9,2.0,2.4,317.3,0.00,-0.3,6.8,"20:33:28",1
"22/01/06","20:50",0.0,0.8,93.0,1015.6,302.1,1.5,2.1,322.7,0.00,-0.2,6.7,"20:43:12",1
"22/01/06","21:00",0.0,1.0,93.2,1015.4,286.1,1.7,2.0,297.1,0.00,0.1,6.5,"20:50:02",1
"22/01/06","21:10",0.0,1.3,93.4,1015.4,299.8,1.5,2.1,288.3,0.00,0.4,6.5,"21:00:32",1
"22/01/06","21:20",0.0,1.5,93.6,1015.9,318.9,1.3,2.5,331.5,0.00,0.6,6.7,"21:18:00",1
"22/01/06","21:30",0.0,1.4,93.8,1016.1,295.0,1.8,2.7,309.9,0.00,0.6,6.6,"21:21:36",1
"22/01/06","21:40",0.0,1.7,94.1,1016.1,294.9,1.8,2.5,312.5,0.00,0.9,6.7,"21:33:28",1
"22/01/06","21:50",0.0,1.8,94.1,1015.9,260.1,0.7,1.7,317.9,0.00,1.0,6.7,"21:40:08",1
"22/01/06","22:00",0.0,1.9,94.3,1016.4,288.7,1.6,2.4,304.2,0.00,1.1,6.3,"21:56:48",1
"22/01/06","22:10",0.0,2.1,94.5,1016.1,284.6,2.0,2.9,327.7,0.00,1.4,6.4,"22:02:00",1
"22/01/06","22:20",0.0,2.1,94.6,1016.6,304.6,2.3,3.1,315.7,0.00,1.4,6.3,"22:16:16",1
"22/01/06","22:30",0.0,2.0,94.7,1016.4,310.6,1.8,2.9,323.2,0.00,1.3,6.7,"22:21:20",1
"22/01/06","22:40",0.0,2.0,94.9,1016.4,319.0,1.7,3.2,321.2,0.00,1.3,6.4,"22:37:36",1
"22/01/06","22:50",0.0,1.9,95.0,1016.1,304.9,1.7,2.6,331.1,0.00,1.2,6.4,"22:46:08",1
"22/01/06","23:00",0.0,1.9,95.1,1016.6,290.8,1.3,2.1,312.9,0.00,1.2,6.4,"22:52:00",1
"22/01/06","23:10",0.0,1.8,95.3,1016.6,286.0,1.7,2.2,314.3,0.00,1.2,6.4,"23:09:36",1
"22/01/06","23:20",0.0,2.0,95.4,1016.6,325.6,1.6,2.8,319.9,0.00,1.4,6.4,"23:17:20",1
"22/01/06","23:30",0.0,1.9,95.5,1016.4,275.2,1.1,2.6,313.8,0.00,1.3,6.4,"23:21:44",1
"22/01/06","23:40",0.0,1.9,95.7,1016.4,279.1,1.6,2.5,299.2,0.00,1.3,6.3,"23:34:32",1
"22/01/06","23:50",0.0,1.8,95.8,1017.1,273.9,1.5,2.9,308.2,0.00,1.2,6.3,"23:49:12",1
"22/01/06","24:00",0.0,1.8,95.9,1016.6,330.0,1.7,2.8,349.4,0.00,1.3,6.2,"23:53:12",1
